Location: Gro�sch�nbrunn
(49.5760°N, 11.8868°E)
Time: 20:24:50
(UTC+00:00)

Envisat - Visible Passes

Search period start: 30 November 2020 00:00
Search period end: 10 December 2020 00:00
Orbit: 764 x 766 km, 98.1° (Epoch: 30 November)

Date Brightness Start Highest point End Pass type
(mag) Time Alt. Az. Time Alt. Az. Time Alt. Az.
30 Nov 5.2 04:17:10 10° NE 04:21:26 26° E 04:25:41 10° SSE visible
30 Nov 3.2 05:55:48 10° N 06:00:41 49° WNW 06:05:34 10° SW visible
30 Nov 5.4 17:15:49 10° SW 17:19:55 24° W 17:24:04 10° NW visible
01 Dec 6.1 03:41:49 10° ENE 03:44:10 13° E 03:46:30 10° ESE visible
01 Dec 3.0 05:18:51 10° NNE 05:23:58 86° ESE 05:29:03 10° SSW visible
01 Dec 4.1 16:37:56 10° S 16:42:50 48° W 16:47:47 10° NNW visible
02 Dec 4.3 04:42:12 10° NNE 04:47:03 43° E 04:51:52 10° S visible
02 Dec 3.0 16:00:53 10° SSE 16:05:57 84° ENE 16:11:04 10° NNW visible
02 Dec 6.1 17:42:48 10° WSW 17:45:39 15° W 17:48:33 10° NW visible
03 Dec 5.5 04:06:03 10° NE 04:09:55 22° E 04:13:48 10° SE visible
03 Dec 3.0 05:44:21 10° N 05:49:21 60° WNW 05:54:20 10° SSW visible
03 Dec 5.0 17:04:01 10° SSW 17:08:26 30° W 17:12:54 10° NNW visible
04 Dec 6.3 03:31:53 10° ENE 03:32:36 10° E 03:33:18 10° E visible
04 Dec 3.3 05:07:28 10° NNE 05:12:34 70° ESE 05:17:37 10° S visible
04 Dec 3.6 16:26:24 10° S 16:31:24 60° W 16:36:28 10° NNW visible
05 Dec 4.7 04:30:56 10° NNE 04:35:35 35° E 04:40:12 10° SSE visible
05 Dec 3.5 06:09:58 10° N 06:14:38 37° WNW 06:19:17 10° SW visible
05 Dec 3.0 15:49:33 10° SSE 15:54:35 69° ENE 15:59:40 10° N visible
05 Dec 5.8 17:30:37 10° SW 17:34:07 19° W 17:37:38 10° NW visible
06 Dec 5.8 03:55:01 10° NE 03:58:24 18° E 04:01:46 10° SE visible
06 Dec 2.9 05:32:54 10° N 05:37:59 73° WNW 05:43:03 10° SSW visible
06 Dec 4.6 16:52:17 10° SSW 16:56:57 36° W 17:01:40 10° NNW visible
07 Dec 3.7 04:56:07 10° NNE 05:01:09 57° E 05:06:08 10° S visible
07 Dec 3.3 16:14:55 10° S 16:19:59 74° WSW 16:25:06 10° NNW visible
07 Dec 6.3 17:58:34 10° W 17:59:55 11° W 18:01:17 10° WNW visible
08 Dec 5.0 04:19:43 10° NE 04:24:06 28° E 04:28:28 10° SSE visible
08 Dec 3.3 05:58:28 10° N 06:03:19 45° WNW 06:08:08 10° SW visible
08 Dec 5.5 17:18:38 10° SW 17:22:36 23° W 17:26:36 10° NW visible
09 Dec 6.0 03:44:10 10° NE 03:46:52 14° E 03:49:31 10° ESE visible
09 Dec 3.0 05:21:29 10° NNE 05:26:37 89° W 05:31:42 10° SSW visible
09 Dec 4.2 16:40:39 10° S 16:45:30 45° W 16:50:23 10° NNW visible
